Location: Borger
(52.9222°N, 6.7926°E)
Time: 05:45:59
(UTC+00:00)

Cosmos 1707 - Pass Details

Date: 15 May 2026
Orbit: 334 x 336 km, 82.5° (Epoch: 6 June)

Event Time Altitude Azimuth Distance (km) Brightness Sun altitude
Exits shadow 22:18:42 33° 224° (SW) 629 2.9 -16.4°
Maximum altitude 22:19:41 53° 283° (WNW) 452 2.5 -16.5°
Drops below altitude 10° 22:22:34 10° 3° (N) 1,355 6.0 -16.6°
Sets 22:24:35 0° 8° (N) 2,207 7.2 -16.7°
